Theta_e
278 278 278 278 278 278 279 279 279 279 279 278 278 278 276 275 272 271 271 273 274 276 279 277 281 285 286 287 289 289 290 292 292 293 294 295 296 297 300 302 303 303 304 303 307 307 307 307 308 310 312 315 319 320 321 323 325 325 325 327 329 330 330 330 329 329 328 327 328 329 328 328 331 330
277 277 277 278 277 278 278 278 278 278 278 278 279 279 278 277 273 272 270 271 275 274 277 278 278 281 282 283 284 286 288 291 291 292 293 295 296 297 298 300 302 304 305 306 307 309 310 310 310 310 311 314 317 320 320 321 323 325 325 328 330 330 329 329 328 328 327 327 327 328 328 328 329 330
277 276 276 277 276 277 277 277 277 278 277 277 277 276 276 276 275 273 272 269 272 276 274 276 279 279 280 281 281 283 284 287 288 288 289 290 294 296 297 299 301 302 303 303 303 303 305 308 310 311 311 313 317 319 319 319 322 324 325 328 330 329 328 328 326 327 327 326 327 328 328 327 328 330
276 275 275 275 275 276 276 276 276 276 277 276 276 275 275 274 274 274 272 270 270 274 275 275 276 278 278 278 278 279 281 284 286 287 288 290 292 295 297 297 299 300 301 302 302 303 304 305 307 310 311 314 316 317 318 319 321 323 325 327 328 328 325 325 324 324 324 324 325 326 326 326 326 328
275 274 274 274 275 275 275 275 275 275 275 275 275 274 274 273 274 273 272 270 270 273 275 275 275 277 277 277 279 279 280 282 284 286 288 290 292 294 296 297 296 298 300 301 302 303 304 305 306 308 310 312 315 317 319 321 320 321 323 325 326 327 327 326 325 322 322 324 324 325 325 324 325 326
274 274 273 273 274 275 275 274 274 274 274 274 273 273 273 273 273 274 272 271 270 270 273 274 276 276 278 277 280 279 279 281 283 285 286 288 289 291 294 295 297 298 299 301 303 304 304 305 306 307 308 312 315 317 318 318 318 318 320 321 321 322 324 325 324 323 321 323 324 324 325 324 325 325
273 273 273 273 273 274 273 273 273 273 273 273 273 273 273 273 273 273 273 272 270 270 271 273 273 274 275 275 277 279 282 283 284 284 286 287 289 292 294 295 296 298 300 301 302 303 304 305 306 306 308 310 312 314 316 316 316 316 317 318 319 319 319 320 321 321 321 322 324 325 324 324 325 324
272 272 272 272 273 273 272 272 272 272 272 272 272 272 273 273 272 273 273 273 272 271 270 272 273 274 274 276 278 279 280 281 283 285 287 289 291 292 294 295 295 298 300 301 302 303 304 304 305 306 306 308 310 312 314 314 315 315 315 316 317 317 317 318 319 319 319 321 323 325 324 324 324 324
272 272 272 272 273 273 271 271 271 271 271 272 272 272 272 272 273 273 273 273 273 272 271 272 274 276 276 277 277 278 278 279 281 284 286 288 289 291 292 294 295 296 299 299 299 300 302 303 305 305 306 307 309 311 313 314 314 313 314 313 314 317 317 316 316 316 316 317 319 322 324 324 324 324
272 272 273 273 272 271 270 270 271 271 271 271 271 272 272 272 273 273 273 273 273 272 272 272 272 274 274 275 276 278 279 279 280 282 285 287 289 290 291 293 295 296 298 298 299 299 300 300 303 304 305 307 308 310 312 313 313 311 310 311 312 314 316 316 315 315 315 315 316 318 321 324 323 323
272 272 272 272 272 271 271 270 271 271 271 272 271 272 272 272 272 272 272 273 272 272 272 272 273 273 274 275 274 277 281 281 281 282 284 285 288 290 291 291 294 296 297 298 299 299 300 302 303 304 303 305 306 308 311 312 312 310 309 310 311 312 314 314 314 314 314 314 314 315 316 318 322 323
273 273 273 272 273 272 272 272 272 272 271 272 272 272 272 272 272 272 272 273 273 272 272 272 272 273 273 275 277 278 280 280 281 283 283 283 285 287 290 292 292 294 295 295 297 299 300 300 301 302 304 305 306 307 309 309 310 308 308 310 310 312 313 313 313 313 312 312 313 314 314 315 318 322
273 273 273 273 273 274 275 277 276 276 276 273 271 272 273 272 272 272 272 272 272 272 272 272 273 272 272 274 274 275 275 276 279 285 286 285 287 288 289 291 293 294 293 294 295 296 301 302 304 306 306 307 305 306 306 310 306 306 308 309 311 311 312 313 312 312 311 311 312 313 313 314 314 316
274 274 274 275 277 277 278 278 278 279 279 279 276 274 274 273 272 272 272 272 272 272 271 271 272 272 272 273 274 275 276 278 279 282 285 285 287 288 288 290 292 294 294 294 294 296 300 300 302 306 307 309 307 310 310 314 312 308 309 310 311 311 311 312 312 311 311 311 311 312 312 312 313 314
274 274 275 275 276 277 277 276 278 279 280 280 280 280 280 278 275 273 273 273 273 272 272 273 273 272 273 274 275 275 276 278 279 280 282 285 287 286 286 285 289 294 294 294 294 295 298 300 300 303 307 310 311 312 313 310 308 308 309 309 310 310 311 311 311 310 311 311 311 311 311 312 312 312
274 274 274 274 275 275 275 275 275 276 278 279 279 280 280 280 280 281 277 275 274 274 273 273 273 274 274 274 276 276 277 278 279 280 282 285 286 286 286 286 286 291 295 292 291 292 298 301 303 304 307 310 312 313 312 309 309 309 309 309 309 310 310 310 310 310 310 310 310 310 311 311 311 311
273 273 273 273 274 274 276 275 274 274 274 277 278 279 279 280 280 281 281 282 278 277 276 275 275 275 276 275 276 277 278 279 280 282 283 284 286 287 286 286 288 289 292 290 288 287 291 296 298 301 307 310 312 313 309 308 309 308 308 308 308 309 309 310 310 309 309 310 310 310 310 310 310 310
273 273 273 273 273 274 274 274 274 274 274 274 274 274 275 275 276 279 280 280 281 280 277 276 275 277 278 276 277 279 279 278 278 279 280 283 284 285 286 288 288 289 290 288 288 286 288 292 294 296 303 310 312 313 311 308 308 308 308 308 308 308 308 309 309 309 309 309 310 310 310 309 310 310
273 273 273 273 273 274 274 274 275 274 274 274 274 274 274 275 275 276 276 277 277 278 278 277 277 277 278 278 279 279 279 279 279 281 281 282 284 286 287 287 287 287 289 289 288 284 288 292 293 295 300 307 312 313 310 307 307 308 308 308 308 308 308 308 308 308 308 309 309 309 309 309 309 309
274 274 274 274 274 274 274 276 278 278 276 275 274 274 274 275 275 276 279 280 281 279 279 278 278 278 278 280 279 279 279 279 280 281 283 284 285 284 284 283 285 285 287 290 289 287 289 293 293 295 300 306 309 311 311 307 307 307 307 307 308 308 308 308 308 308 308 308 309 309 309 309 309 309
274 274 274 274 274 274 274 277 279 279 279 275 274 274 274 275 275 275 277 280 281 282 283 282 282 283 282 283 284 284 284 282 281 280 280 281 282 282 281 283 284 285 287 288 291 290 288 291 293 294 297 303 308 309 310 310 306 307 307 307 308 308 308 308 308 308 308 308 309 309 308 308 308 307
274 275 277 276 274 273 273 277 279 279 278 275 275 274 274 274 274 275 277 278 279 282 282 282 282 282 282 282 284 284 285 285 284 282 280 281 283 282 283 282 284 285 286 287 290 288 287 290 291 292 295 299 304 308 309 309 308 305 306 307 307 307 307 307 308 308 308 308 308 309 308 308 307 310
274 274 275 276 275 275 275 278 279 279 278 275 274 274 274 274 274 275 277 277 277 278 278 279 279 280 281 280 280 280 283 284 284 283 283 284 283 282 283 284 284 282 284 287 290 286 287 288 291 293 294 297 302 305 306 306 308 307 307 309 309 306 306 306 307 307 307 308 308 308 308 307 308 312
272 273 272 273 276 277 277 278 278 279 279 276 275 275 274 273 273 276 277 277 278 278 278 278 279 278 279 279 280 280 281 282 283 283 284 285 285 284 284 284 284 282 284 287 290 287 287 289 288 294 298 298 297 300 305 306 307 307 308 308 309 305 305 305 306 306 307 307 308 308 308 307 310 313
271 271 271 271 274 276 277 278 278 279 280 280 277 276 275 275 276 278 276 277 279 278 278 278 278 278 278 279 280 281 282 283 284 285 286 286 287 286 284 284 283 283 285 288 291 287 286 287 286 289 293 300 296 299 302 305 306 306 306 309 309 309 308 309 308 310 306 306 307 308 307 308 309 312
270 270 270 270 273 276 277 278 279 279 279 279 277 276 280 281 281 279 278 278 278 278 278 278 277 277 277 278 279 280 282 284 285 286 287 287 287 288 287 285 284 283 284 288 292 288 287 286 287 287 290 297 296 300 300 302 305 306 307 309 309 309 309 309 309 310 310 310 310 309 309 308 309 310
270 270 270 271 274 276 277 278 278 278 279 277 275 279 280 281 282 281 279 278 278 278 278 277 276 277 277 278 279 280 281 282 285 286 287 288 288 287 287 288 288 286 287 288 288 289 288 287 288 287 287 294 298 298 299 300 301 305 306 307 308 308 309 310 309 309 310 310 309 307 307 307 308 309
270 269 270 272 276 276 276 277 277 277 276 274 277 278 279 280 282 280 279 278 278 278 278 277 276 277 278 279 280 282 282 283 284 285 286 286 287 287 287 287 287 287 288 288 289 289 289 288 288 288 289 289 296 298 298 302 301 303 303 306 307 308 309 309 309 306 307 309 309 309 309 309 310 311
270 273 275 275 275 275 275 275 275 274 274 275 276 277 277 277 279 279 279 278 278 278 278 278 278 278 279 280 281 283 283 284 285 285 285 286 286 286 286 287 287 287 288 288 289 289 289 289 288 289 289 290 295 300 301 300 301 302 303 302 302 305 307 309 309 307 307 309 308 308 309 309 309 309
274 274 274 273 273 273 272 270 270 270 270 274 275 275 275 272 276 279 279 278 278 278 278 278 278 279 280 281 282 283 283 283 283 284 284 284 284 285 285 285 285 286 287 288 289 289 290 290 291 291 290 291 294 300 301 301 300 303 301 303 304 303 306 308 308 307 305 306 307 308 310 311 310 307
269 269 269 269 272 272 273 272 272 272 271 270 270 270 270 271 272 274 278 280 279 279 279 279 279 280 282 283 283 282 283 282 283 284 284 284 284 285 285 284 284 285 287 288 289 290 290 291 292 292 291 291 293 300 302 303 301 301 302 304 302 301 304 307 307 306 307 307 307 307 308 309 307 302
267 266 269 268 267 267 267 267 268 268 268 268 268 269 269 270 271 273 275 277 280 281 281 280 281 281 281 281 282 282 282 283 284 285 285 284 284 285 285 284 283 285 286 287 289 290 289 292 293 293 293 293 293 298 302 302 302 301 302 302 302 305 305 305 306 306 307 306 305 306 306 307 306 307
266 265 265 265 265 265 265 265 266 266 266 267 267 268 268 269 269 270 271 271 273 275 278 280 280 280 281 281 282 283 283 283 284 285 285 285 285 285 285 284 284 285 285 286 288 290 291 291 291 293 294 294 296 298 300 300 301 303 302 302 303 303 304 306 305 305 305 305 304 304 304 306 306 307
263 263 263 263 263 263 264 264 264 265 265 265 266 266 269 268 268 269 270 270 271 273 273 274 277 280 281 281 281 282 282 283 284 285 285 285 285 285 284 284 285 286 286 287 289 290 292 292 291 291 292 293 294 297 302 302 301 302 302 303 303 302 304 305 305 304 304 304 304 303 303 304 305 306
262 262 262 262 263 263 263 264 264 264 265 265 265 266 266 267 267 268 269 269 270 270 270 272 275 278 281 281 282 282 282 283 284 285 285 285 285 285 285 284 285 286 287 288 289 291 292 292 291 293 293 294 294 291 293 297 303 302 302 303 303 303 303 304 304 304 303 304 304 302 302 303 303 305
261 261 261 261 262 262 263 263 264 264 264 265 265 265 265 266 267 267 268 269 269 269 270 271 273 275 277 280 282 283 283 284 284 284 285 285 285 285 285 285 286 286 288 289 290 292 292 292 293 294 293 294 294 295 297 292 299 304 302 301 303 302 303 302 302 303 303 303 303 303 301 300 301 302
260 261 261 261 262 262 262 263 263 264 264 265 265 266 265 265 266 268 268 269 269 269 270 270 270 272 274 276 280 283 284 284 283 284 284 285 285 285 285 286 286 287 288 290 292 292 292 292 293 295 294 294 294 294 293 293 296 302 305 302 301 302 302 302 302 302 303 302 302 303 302 302 301 302
259 260 260 261 261 262 262 263 264 264 264 264 265 265 266 266 267 268 268 268 268 268 269 269 269 270 271 274 276 279 284 284 284 284 284 284 284 284 285 285 287 288 289 291 291 292 293 293 293 294 295 294 294 293 292 294 297 297 297 303 301 300 301 301 300 301 301 302 302 303 303 302 301 302
259 259 260 260 261 261 262 262 263 263 264 264 265 265 265 266 266 267 267 267 268 268 268 268 268 269 270 271 274 277 279 283 284 284 284 285 285 285 285 286 287 289 290 290 291 292 293 293 293 294 296 296 295 295 296 296 297 297 296 299 302 300 300 301 301 301 301 301 301 299 296 296 296 293
259 259 260 260 260 261 262 263 263 264 263 264 265 265 266 266 266 266 266 267 267 268 267 267 268 268 268 269 271 273 276 279 283 285 285 285 286 286 286 287 288 290 290 290 290 292 293 294 294 294 296 296 294 293 292 295 296 295 295 296 298 301 301 302 301 300 299 300 298 297 296 297 295 296
258 258 259 260 260 261 261 262 263 263 264 264 265 266 266 266 266 266 267 267 267 267 266 266 267 267 267 268 269 270 272 276 280 284 285 285 285 286 286 287 289 290 290 290 290 291 293 295 294 292 290 292 294 297 297 294 292 293 294 294 294 296 298 300 303 301 300 298 298 298 297 296 295 296
257 258 259 259 260 260 261 262 263 263 263 264 264 265 266 266 266 269 267 267 267 267 266 266 266 266 266 267 268 269 270 273 276 282 285 285 286 286 287 288 289 290 290 290 291 292 295 293 290 291 294 295 295 295 292 292 292 293 293 294 293 293 295 296 298 299 302 300 299 297 296 295 297 296
257 257 258 259 260 261 261 262 263 263 263 264 264 265 265 266 266 266 266 266 266 266 266 266 266 266 266 267 267 268 269 271 274 279 284 286 286 287 287 288 289 290 291 292 292 291 290 291 292 294 295 295 294 294 293 293 293 293 292 293 293 293 292 293 295 295 296 297 298 299 300 297 296 294
256 257 257 258 259 260 261 262 262 263 263 263 264 265 266 266 265 266 266 266 266 265 265 265 265 265 266 266 267 267 268 270 274 277 281 286 287 288 288 289 289 290 291 291 289 290 291 293 294 295 295 294 294 294 293 292 293 293 293 293 293 293 293 293 294 294 295 296 295 296 297 297 294 294
256 256 257 258 259 260 261 262 262 263 263 263 264 265 266 266 266 266 267 266 266 265 265 265 265 265 265 266 266 266 268 271 273 276 280 284 288 289 289 289 290 290 290 290 290 290 291 293 294 295 295 295 294 294 293 293 293 293 292 292 292 293 294 294 295 295 295 294 292 293 294 294 292 293
Wind_Speed
12 12 14 13 13 12 12 12 12 13 13 13 14 14 17 17 19 17 17 20 18 16 15 15 13 11 14 13 13 15 15 17 18 16 18 18 17 20 23 23 24 26 32 30 28 28 30 30 30 28 29 33 34 32 31 29 26 29 30 31 34 36 34 33 30 34 36 33 34 37 37 37 36 35
11 13 13 12 13 12 12 13 13 13 14 14 15 17 17 16 20 18 20 21 15 20 17 15 14 12 14 14 15 16 18 21 21 18 18 17 17 23 24 26 27 25 24 24 26 27 27 27 27 28 28 32 35 34 31 30 27 29 33 33 36 40 41 41 43 43 41 39 35 34 36 37 36 35
11 13 14 13 13 13 14 14 13 14 14 15 16 16 16 18 20 18 19 20 18 15 19 15 13 14 15 14 15 16 17 20 24 22 22 21 24 26 20 22 20 21 20 20 21 21 22 23 25 26 27 31 35 35 32 30 28 30 31 36 36 39 34 32 30 33 37 39 35 33 34 36 36 35
12 13 15 14 13 13 13 13 13 14 16 17 16 16 16 17 17 16 18 19 26 18 16 19 17 19 19 20 18 20 19 19 27 21 22 24 28 20 15 18 19 20 24 24 23 24 24 25 25 26 26 30 35 36 34 31 29 30 33 35 35 35 32 30 30 29 29 33 35 33 32 34 35 33
13 14 15 15 15 15 15 13 13 15 17 16 16 16 16 16 16 17 16 20 22 22 16 16 17 18 18 20 20 21 20 20 18 20 21 21 18 17 15 14 17 19 21 23 23 24 24 24 25 25 25 28 33 36 35 32 30 29 30 34 36 36 38 38 36 34 33 34 34 33 32 33 34 32
12 13 15 16 16 15 15 15 16 16 17 16 17 17 17 16 16 17 16 18 21 26 20 15 15 18 16 20 18 19 22 21 18 21 19 18 20 19 16 15 14 18 19 20 21 23 24 24 23 24 25 26 31 36 36 33 30 28 30 33 37 40 39 39 40 37 33 34 35 35 33 33 33 32
13 14 14 16 15 12 13 15 17 17 18 17 18 19 17 18 18 18 17 18 20 23 24 17 18 18 17 18 20 20 19 19 18 20 20 19 17 16 17 16 14 18 21 22 22 24 24 24 24 24 24 24 28 33 35 32 30 29 30 34 36 37 39 38 38 39 37 35 35 35 35 34 33 32
13 14 15 15 14 14 17 17 16 16 17 17 17 18 18 19 20 19 17 19 21 21 24 18 16 17 18 17 17 16 18 21 20 18 18 18 17 16 14 15 14 15 21 23 23 22 23 24 24 24 23 23 25 31 33 31 30 28 31 33 37 39 37 39 38 40 41 39 38 37 36 35 33 32
14 15 15 16 16 18 19 17 17 17 19 18 18 19 18 18 18 17 17 18 18 19 22 20 16 17 17 17 18 18 18 19 19 20 19 18 18 17 16 15 15 22 26 24 24 24 25 24 24 24 23 23 24 27 32 31 29 28 30 34 37 42 44 39 39 39 39 41 40 39 38 37 35 33
13 14 18 19 19 19 19 19 17 19 21 20 19 22 19 19 18 19 19 18 19 19 21 19 20 17 18 18 17 17 16 18 17 17 18 18 17 16 16 15 14 14 13 10 12 18 22 26 27 25 23 23 24 25 29 31 30 29 29 33 33 35 39 43 39 37 39 41 42 41 40 39 37 34
17 18 18 19 19 21 21 20 20 20 22 18 23 20 22 19 19 19 18 19 20 19 19 18 18 18 16 16 19 17 16 18 18 17 16 15 13 13 14 15 14 13 13 15 19 19 17 17 16 19 23 24 24 25 29 31 32 29 30 31 35 35 34 35 38 37 35 36 39 40 39 39 36 34
17 18 19 21 20 22 20 22 20 23 21 19 19 19 19 19 19 19 18 17 17 18 17 17 17 15 17 15 15 16 16 17 17 16 15 17 17 14 13 15 15 13 12 10 10 13 18 20 22 23 22 22 23 25 28 32 32 32 30 33 31 37 38 37 35 36 37 36 35 38 39 39 37 35
18 19 20 19 21 21 29 32 31 27 26 20 17 20 18 19 18 19 16 16 15 14 16 16 13 17 17 17 16 16 16 18 18 14 12 14 15 14 14 15 15 12 11 9 10 11 10 9 10 10 11 14 19 22 29 27 34 32 32 34 36 32 40 40 39 38 38 38 36 35 37 39 38 35
16 18 16 19 28 31 31 33 34 34 35 35 28 21 17 18 17 16 16 16 15 15 13 18 13 17 16 16 16 18 19 17 19 21 18 16 14 13 15 14 11 9 9 10 12 12 10 10 11 11 12 11 14 13 18 20 23 29 33 35 37 38 35 43 43 41 39 39 38 37 37 38 38 36
18 15 19 16 21 24 26 25 30 31 33 34 35 36 37 30 23 16 17 15 14 15 15 17 15 17 20 17 19 19 19 18 17 17 17 16 15 14 13 13 8 7 9 10 12 12 9 10 12 11 11 12 11 14 17 26 29 32 33 35 37 40 40 36 42 43 42 39 39 39 39 38 38 37
15 19 16 18 15 17 20 20 21 26 31 33 34 35 35 34 36 34 26 18 15 14 13 15 15 14 19 17 16 18 17 18 17 17 17 18 16 13 11 10 10 4 2 7 9 11 8 7 9 11 11 11 11 15 20 30 32 32 33 34 36 39 43 44 39 42 43 43 40 39 40 40 38 38
18 14 19 16 17 17 24 21 21 22 23 28 34 34 35 34 35 34 36 36 27 20 21 19 16 15 15 19 16 15 18 17 18 16 16 16 13 11 9 9 7 5 5 8 11 13 11 8 10 10 10 10 12 16 23 28 30 32 32 33 34 34 36 41 45 41 42 42 41 39 40 41 40 38
16 19 19 20 20 18 19 20 19 21 24 23 21 20 19 19 24 29 33 34 36 32 23 19 18 16 14 18 19 18 18 19 18 18 18 17 15 12 9 7 7 7 3 7 9 13 13 8 9 11 10 10 13 14 21 30 30 31 33 33 35 35 35 35 38 43 43 42 40 39 39 40 40 38
19 20 21 20 18 21 22 16 23 21 23 21 18 18 19 19 20 22 21 20 17 17 17 22 21 23 20 18 20 20 19 20 20 17 18 20 19 15 10 10 10 10 8 8 7 12 13 7 8 11 10 10 13 14 21 28 30 31 32 34 36 39 38 37 34 34 38 40 39 37 36 38 39 38
17 19 18 17 21 23 19 26 32 30 24 20 20 20 19 20 21 21 20 26 27 23 20 19 19 16 19 22 20 20 18 19 19 18 18 17 16 15 14 14 9 8 5 8 9 10 11 8 8 11 10 10 14 13 15 24 30 31 33 35 36 38 39 40 41 37 35 36 38 38 37 37 38 37
18 16 15 20 21 21 23 27 33 33 31 21 21 20 21 20 19 20 19 26 34 35 38 39 39 37 35 31 32 35 38 28 21 17 17 18 14 15 15 14 9 9 6 6 9 8 11 9 6 10 10 11 14 14 13 16 27 31 33 35 36 37 38 39 42 45 42 39 38 37 37 37 37 39
15 17 29 27 22 24 23 30 33 33 27 21 20 20 21 22 20 19 17 16 18 30 35 37 37 36 34 34 36 38 38 37 30 19 18 16 13 16 14 14 9 7 7 8 6 5 10 10 7 9 11 10 12 14 14 16 21 30 32 36 36 36 35 36 38 41 43 42 39 39 39 37 37 30
14 17 19 28 27 25 27 34 32 33 28 21 19 20 21 21 21 19 17 17 17 15 16 17 18 20 24 23 22 23 35 36 33 24 21 16 15 15 13 9 7 9 11 8 10 8 6 6 8 5 8 11 8 11 14 16 17 17 17 25 29 36 36 36 36 37 39 40 40 40 39 38 35 22
19 18 14 20 28 30 32 33 34 33 35 26 22 20 19 20 24 18 17 17 17 17 17 17 16 15 14 15 17 18 19 21 24 23 20 19 16 14 10 10 10 13 9 1 3 1 5 6 11 9 12 10 7 7 13 14 16 18 19 20 20 32 37 39 34 40 38 37 39 40 41 41 36 22
18 16 18 18 25 31 33 34 35 37 37 34 24 20 18 20 24 24 18 20 27 19 17 16 14 13 12 14 15 16 18 17 17 18 19 17 16 14 13 12 13 15 11 9 1 2 5 4 9 11 14 15 4 7 10 15 15 16 18 20 20 25 25 26 24 27 34 38 37 38 40 43 41 29
17 19 19 18 24 34 35 36 36 36 34 35 22 21 30 36 37 28 20 16 14 14 13 13 12 11 11 13 13 13 13 13 15 16 16 15 14 13 13 14 14 14 12 4 7 3 5 9 7 9 13 13 6 10 11 12 16 16 17 18 19 20 24 24 24 25 25 24 25 30 35 42 38 37
18 18 19 20 31 35 36 34 34 33 35 29 20 31 33 35 36 30 16 14 13 13 12 11 10 11 11 12 13 13 13 12 11 11 12 12 12 12 12 13 14 15 13 10 6 6 7 12 10 10 13 13 8 8 12 13 12 15 17 18 20 20 20 20 21 22 24 24 22 35 36 39 39 37
17 17 18 23 36 34 32 33 33 32 31 23 31 33 35 35 27 13 10 11 12 12 9 10 10 11 11 11 12 11 10 11 11 10 10 10 11 11 11 13 16 16 15 14 11 9 11 13 14 12 12 14 13 13 12 11 12 15 17 16 17 19 19 20 21 21 21 22 21 24 22 22 23 24
16 24 33 33 30 30 31 32 30 26 26 30 31 33 33 31 12 8 8 10 10 12 10 10 10 10 10 11 11 10 8 9 10 11 11 10 10 11 12 13 14 15 13 13 11 11 11 13 15 14 11 12 15 12 14 15 14 16 18 20 16 18 19 19 19 20 20 22 22 22 22 22 21 20
28 28 28 30 29 26 24 20 18 17 19 28 29 28 26 15 15 9 9 9 11 11 11 10 11 10 10 11 11 11 11 10 11 11 11 10 11 10 11 11 13 14 14 14 14 13 12 14 15 14 13 14 15 14 14 15 16 18 17 19 18 15 17 19 20 21 21 21 22 23 21 23 24 23
14 19 19 19 24 22 27 27 25 23 23 18 17 14 14 14 13 15 12 11 10 9 10 10 9 9 9 8 8 9 9 11 11 12 12 11 11 10 10 12 14 14 13 11 12 12 12 14 15 14 14 14 14 15 15 16 16 15 17 19 21 20 18 20 21 20 20 20 20 21 20 19 18 18
15 14 17 17 14 15 14 15 12 13 13 13 14 13 13 13 14 16 20 19 11 10 10 9 9 9 9 10 10 10 11 11 11 11 12 12 11 10 10 11 14 13 12 12 12 12 14 15 14 14 15 15 15 13 15 17 19 18 18 18 20 17 18 21 22 22 23 22 20 20 18 18 18 17
11 10 11 11 13 13 15 15 14 14 15 15 14 15 13 13 13 12 12 12 12 13 12 11 10 11 9 10 9 10 11 12 12 11 11 11 10 9 10 13 12 11 12 12 12 11 10 12 15 16 15 14 16 13 14 17 17 19 20 19 20 18 18 17 19 21 22 22 20 18 17 17 17 18
10 11 12 12 13 14 14 15 15 15 16 17 18 16 18 14 13 13 13 12 12 13 12 12 12 11 11 10 10 10 10 11 12 11 11 10 9 10 11 11 11 11 11 13 12 11 9 10 10 11 13 14 11 13 17 18 17 18 18 19 18 19 19 21 19 20 20 21 22 20 18 17 16 15
9 11 12 13 13 14 14 14 15 15 13 14 15 17 15 13 14 14 13 13 13 14 13 13 12 12 12 12 11 11 11 11 10 9 8 9 10 10 10 10 11 10 11 12 12 10 8 8 8 8 6 6 5 1 10 5 21 18 20 19 19 18 19 19 20 20 21 18 19 22 20 19 18 15
9 10 11 12 13 14 14 14 15 15 15 13 12 14 15 14 13 14 14 15 14 14 13 13 13 13 13 13 13 13 11 11 10 10 9 9 10 9 9 10 10 11 12 12 11 9 9 10 9 10 10 10 10 11 12 10 4 22 19 20 20 20 18 19 20 20 20 19 19 19 19 19 17 15
9 9 11 11 12 13 14 14 14 15 16 15 14 13 15 16 16 14 16 17 14 13 13 13 13 13 13 13 14 13 12 11 10 10 10 10 9 9 10 10 10 12 13 12 10 9 9 10 10 11 11 12 13 16 6 1 1 13 25 21 16 18 20 19 21 20 19 20 20 21 21 21 21 19
8 9 10 11 12 12 13 13 13 13 14 15 15 15 15 15 16 17 16 14 13 12 13 12 13 13 13 13 12 12 10 9 9 10 11 10 10 10 10 10 11 11 12 11 9 10 10 9 8 9 12 14 15 14 11 5 9 2 5 21 23 17 17 20 21 21 20 18 20 18 16 16 16 14
9 9 10 11 12 12 13 14 13 12 13 14 14 13 14 13 14 15 14 13 13 12 12 13 13 13 13 14 13 12 12 10 9 9 10 10 10 10 10 10 11 11 10 10 9 9 10 8 8 8 11 14 16 17 17 18 15 11 8 17 21 23 20 21 21 20 19 18 15 9 6 7 12 15
9 9 9 10 11 12 12 13 13 13 13 13 13 13 14 14 14 12 11 12 12 13 13 13 14 14 13 13 13 12 13 14 12 10 10 9 9 9 10 10 11 10 9 10 9 9 10 9 8 8 8 6 5 5 4 5 7 6 6 8 20 24 25 23 23 22 18 16 15 16 15 15 13 9
10 11 11 9 10 11 12 12 12 13 14 14 13 14 14 15 16 13 13 15 14 14 13 12 12 13 13 13 13 12 13 12 12 11 10 10 11 10 12 12 11 9 9 9 10 10 13 12 9 9 9 9 11 12 13 12 11 10 9 7 8 8 15 25 26 25 23 21 19 19 19 20 18 17
11 10 11 10 10 12 12 12 13 12 12 13 14 13 15 16 15 23 18 16 14 14 13 12 13 13 12 12 12 13 12 12 12 12 10 9 9 10 12 11 11 9 9 10 12 12 10 4 6 11 9 8 11 13 12 13 13 12 11 9 5 6 7 8 14 18 23 24 23 20 16 15 15 16
10 11 12 12 11 11 12 12 13 12 12 12 13 14 15 17 16 15 12 14 14 14 13 12 12 13 12 12 12 12 12 13 13 13 13 10 10 9 10 10 11 10 10 9 7 4 6 8 9 10 9 8 8 11 14 13 11 11 10 10 8 6 4 7 13 15 15 16 21 24 25 25 23 21
10 11 11 12 12 12 12 12 13 12 13 12 13 12 13 15 17 16 13 12 13 13 13 13 12 12 13 12 12 12 11 12 13 13 13 11 10 10 10 9 9 8 7 6 5 6 8 10 11 11 11 10 9 10 12 12 11 10 10 10 9 10 8 6 7 10 13 15 11 10 7 6 11 9
10 10 11 12 13 12 11 12 12 13 13 13 13 12 15 16 15 14 14 14 13 14 14 13 11 10 11 12 12 13 12 14 14 13 12 12 10 9 9 9 8 8 6 5 8 7 7 10 10 11 11 11 10 10 11 12 13 11 10 11 12 10 10 11 12 12 10 6 4 11 14 14 21 28
Wind_Direction
271 269 266 264 266 264 262 261 257 257 257 258 260 257 262 266 271 278 275 272 284 282 273 285 283 283 289 291 294 290 284 275 267 256 257 260 261 255 251 250 251 253 258 258 254 246 245 247 248 245 241 243 240 233 232 234 226 220 217 208 202 197 190 185 189 182 175 181 183 180 180 182 185 187
271 270 269 266 267 267 266 265 263 259 258 265 272 273 274 268 264 269 271 276 272 278 277 273 282 286 284 287 289 287 285 283 287 290 287 272 257 252 249 248 248 250 257 257 254 252 248 246 246 245 240 239 238 233 229 230 225 217 211 206 199 190 187 185 183 182 177 177 182 184 179 179 184 186
271 271 271 269 269 269 269 268 267 270 273 270 268 268 265 263 262 264 268 273 269 263 277 275 279 288 289 289 292 289 284 286 288 289 284 280 281 269 251 245 250 257 256 259 263 267 267 263 254 247 242 238 236 231 228 225 223 218 211 202 197 188 186 188 191 185 177 170 178 184 181 180 183 185
270 270 269 268 268 271 273 272 273 273 271 270 266 264 263 262 259 260 264 264 271 267 267 278 282 281 282 283 278 276 276 276 278 274 272 276 272 270 267 257 252 256 263 264 262 260 258 257 259 257 247 240 235 230 226 223 221 220 212 203 196 184 184 183 183 187 183 172 174 183 183 181 183 184
267 267 267 267 267 269 267 269 272 270 268 265 264 262 261 259 258 256 260 263 269 273 267 276 278 280 281 278 273 276 277 276 272 268 270 272 275 274 268 264 257 256 257 260 259 258 255 254 253 254 252 244 236 231 225 221 219 217 210 199 190 186 182 182 182 184 182 178 175 179 183 183 184 184
265 265 267 267 266 263 269 275 274 271 268 265 265 261 259 258 258 255 258 260 266 272 277 271 274 276 272 276 273 272 276 275 269 270 266 262 267 267 266 263 261 254 254 252 254 255 254 252 252 253 252 247 238 230 224 220 214 211 206 199 190 186 185 182 181 179 182 180 175 177 182 184 185 184
269 269 268 272 276 282 281 276 275 272 266 266 264 263 260 259 258 256 254 259 263 268 274 273 277 273 274 269 277 277 275 273 271 268 264 261 257 254 253 253 254 253 257 261 258 255 254 253 252 252 251 250 242 230 223 217 213 209 204 199 194 192 184 183 181 176 177 179 178 178 181 184 185 182
269 268 270 272 279 279 277 276 273 269 268 266 266 264 262 259 261 256 255 252 258 265 272 271 268 273 276 275 269 270 271 277 277 273 273 271 267 264 262 260 260 255 253 254 256 256 255 253 252 251 250 250 245 231 221 216 212 209 203 202 196 186 188 183 182 178 175 176 177 178 181 182 184 182
269 270 271 276 279 279 273 271 270 268 265 265 265 264 262 262 260 261 257 256 254 261 265 273 267 270 272 274 273 271 274 273 270 269 266 264 267 268 267 267 266 265 258 255 257 259 258 253 249 248 248 246 245 235 220 213 211 208 202 199 199 191 182 184 181 179 177 174 175 177 178 180 182 181
271 276 282 283 282 274 268 269 263 265 263 263 261 262 261 260 260 260 260 257 259 260 265 271 276 272 274 279 271 269 263 269 272 266 263 262 261 265 266 261 259 253 249 250 250 249 248 248 245 245 245 242 242 237 224 211 208 206 203 199 194 193 185 178 181 181 179 176 174 175 177 178 178 179
279 278 274 272 268 267 261 257 257 260 259 256 258 255 259 257 259 259 260 260 260 260 263 267 268 274 270 270 278 276 270 264 264 269 275 272 264 259 258 261 255 252 249 248 250 252 253 245 238 236 235 235 235 235 226 214 206 205 200 201 191 184 185 182 178 179 179 181 177 174 175 175 175 177
270 266 264 261 260 259 256 260 256 261 258 254 254 252 255 253 256 255 256 259 259 260 261 262 269 268 277 275 272 279 278 272 261 250 255 264 267 263 256 252 253 247 247 252 258 248 241 242 244 244 241 233 230 228 224 214 206 203 201 196 202 185 180 180 180 177 178 181 181 175 173 172 172 176
270 267 264 262 260 256 256 255 258 257 258 254 258 253 252 253 256 255 255 258 258 257 261 262 265 272 270 270 278 279 271 269 277 277 248 249 253 258 262 256 248 247 254 260 263 261 252 250 241 232 231 230 225 225 217 213 205 203 200 198 191 200 182 179 178 179 178 177 179 178 174 172 171 176
274 275 270 273 271 272 274 269 270 264 262 263 255 252 248 249 246 247 250 250 250 249 251 256 256 262 259 266 266 274 273 274 271 273 270 257 253 254 257 260 252 247 249 259 260 254 240 242 253 244 238 231 213 218 211 210 204 201 199 197 192 190 195 179 177 177 178 177 178 177 176 173 171 175
284 283 284 280 284 284 282 281 279 277 275 271 273 266 262 254 247 246 248 244 241 241 246 251 248 256 260 260 267 267 275 271 273 280 290 283 265 253 251 252 254 233 242 249 252 251 232 224 241 243 238 230 216 211 210 205 199 196 197 196 194 189 186 190 178 175 176 178 179 177 174 174 172 175
289 290 289 289 285 284 284 284 284 281 279 278 274 273 271 269 263 257 251 252 249 243 245 245 245 243 254 255 254 266 269 272 273 270 270 273 261 249 246 254 258 258 324 316 309 297 298 280 255 252 240 229 220 209 210 205 197 194 194 194 192 192 187 181 183 178 176 176 180 178 174 172 173 174
288 288 292 288 289 288 285 284 282 280 279 276 276 275 276 274 273 272 266 260 257 256 256 258 255 250 260 258 256 257 266 269 273 274 272 277 270 253 254 257 273 287 345 317 300 291 282 285 281 272 253 235 221 209 203 201 199 191 191 190 190 189 190 186 178 179 177 176 178 179 175 172 172 174
289 289 292 293 288 286 286 283 278 281 279 279 277 274 271 269 269 270 270 270 266 262 260 260 261 260 253 257 266 260 260 264 266 274 277 282 284 282 269 281 281 284 311 280 290 287 281 272 275 268 269 242 225 211 204 198 195 189 188 188 186 185 185 188 185 177 176 175 176 178 175 171 170 172
288 289 289 284 285 290 286 279 283 280 282 277 274 270 267 264 268 268 267 264 261 259 257 258 262 262 257 257 261 263 258 255 259 261 268 273 283 291 293 285 271 274 255 246 242 266 276 275 271 271 267 250 224 207 200 196 191 189 187 186 187 184 184 180 181 182 177 173 173 175 174 171 169 170
289 289 285 286 289 287 286 289 287 287 283 279 273 268 265 265 265 265 262 263 262 257 255 250 249 250 255 254 254 256 257 257 257 259 262 265 266 273 275 272 277 263 242 203 220 254 274 269 271 279 277 258 231 207 198 192 191 189 186 186 186 186 186 181 174 176 178 176 173 173 173 171 168 168
292 289 288 293 292 294 295 294 293 291 290 284 280 275 271 268 266 264 263 261 264 263 262 258 254 253 249 248 256 258 259 256 251 252 258 257 260 269 271 270 266 264 254 224 217 254 274 272 271 283 275 261 228 204 195 188 189 187 186 185 186 187 186 184 178 174 174 176 175 173 172 170 167 165
291 293 299 298 298 297 294 295 294 293 292 286 282 279 275 273 267 264 263 262 256 258 258 260 262 261 262 257 261 263 259 258 255 245 243 249 256 257 257 265 265 280 271 256 199 239 253 276 273 275 277 261 230 197 185 182 187 188 184 185 185 184 184 183 182 177 173 173 174 173 171 168 164 161
298 302 299 300 300 297 296 298 298 297 296 290 285 283 281 278 275 271 269 263 262 257 251 249 252 252 255 255 256 260 259 255 253 249 252 252 243 246 250 256 273 281 264 255 180 212 251 259 254 244 274 253 231 198 176 177 181 181 185 182 182 181 179 179 178 178 175 172 172 171 168 165 161 162
308 304 299 302 301 302 302 300 299 297 293 288 280 274 271 269 269 268 267 264 259 260 253 251 244 244 244 249 253 250 248 244 243 244 242 245 243 243 248 251 253 255 258 253 104 13 319 301 294 293 262 247 223 201 172 176 178 175 177 179 179 179 176 175 175 174 173 172 171 170 165 162 161 163
309 307 307 306 304 303 303 302 301 300 298 297 291 280 269 263 265 266 262 264 266 265 261 254 249 246 243 252 257 256 248 237 235 239 237 235 237 239 243 248 249 254 249 240 255 295 275 282 288 296 279 249 205 171 185 171 178 176 177 175 176 175 174 175 171 172 170 170 171 171 165 162 163 164
309 308 306 303 304 305 305 305 305 306 304 303 301 290 287 283 279 272 261 260 260 257 255 250 244 241 240 253 257 256 261 253 239 233 229 227 227 229 232 237 243 252 251 205 149 188 264 277 257 280 276 261 240 180 167 184 175 173 174 175 173 174 174 172 172 169 169 169 170 170 167 164 164 166
308 306 305 303 305 308 310 311 311 311 312 311 302 300 301 297 282 271 258 252 255 256 248 236 228 233 241 246 252 253 254 253 247 240 231 226 225 226 234 236 239 249 258 267 254 254 254 267 264 255 271 281 237 195 176 169 178 171 173 173 171 170 175 171 171 168 165 165 167 167 166 167 165 167
306 305 305 308 311 312 313 312 313 314 314 310 310 313 315 312 298 277 255 246 252 255 230 227 229 231 235 241 248 245 245 248 244 245 237 231 228 228 234 238 244 247 250 254 251 239 243 255 263 250 250 265 256 194 182 172 164 172 168 168 168 168 170 170 168 165 163 161 160 165 166 167 167 163
306 311 314 314 315 314 313 314 315 314 312 314 316 319 324 327 297 278 248 251 253 255 245 234 233 237 238 241 246 248 258 262 252 244 245 233 227 228 234 239 243 246 244 245 243 237 239 250 256 261 255 257 258 220 176 173 168 173 169 161 168 171 167 167 165 163 162 160 160 163 166 163 165 166
317 318 316 314 315 314 313 316 318 316 317 318 319 323 329 333 321 285 253 247 251 247 246 236 238 244 243 243 240 237 238 247 255 254 247 244 236 228 237 246 249 250 246 246 244 242 242 246 248 251 252 254 255 230 183 162 173 170 167 169 162 156 168 164 164 161 161 163 161 163 168 170 169 168
325 319 319 320 321 320 318 316 313 315 317 320 323 325 327 325 325 327 310 272 251 251 242 246 247 250 250 248 245 237 233 236 238 242 249 246 245 235 239 244 254 259 250 241 238 237 239 241 240 234 240 252 256 229 186 165 166 171 169 164 161 169 168 162 161 162 162 160 161 163 165 167 167 170
325 318 321 322 325 324 322 320 317 317 321 321 321 320 320 322 324 321 322 327 296 262 252 253 256 251 251 247 246 244 241 242 240 237 234 234 237 233 239 244 250 255 263 259 254 243 232 231 229 230 230 238 249 231 185 169 166 167 169 167 165 158 161 166 162 163 163 161 161 165 165 163 164 167
322 321 330 332 332 334 330 328 326 330 330 329 328 325 325 328 326 326 331 326 325 325 310 280 257 254 249 251 248 249 248 243 240 231 234 228 227 228 227 239 247 252 258 262 259 250 228 227 223 228 229 230 239 229 187 167 169 165 166 169 164 159 162 163 161 161 159 159 162 161 164 168 170 170
331 336 338 335 332 331 331 331 330 328 330 333 333 330 329 327 323 324 324 322 321 319 314 310 301 276 256 252 251 252 257 255 250 238 229 231 223 229 230 238 243 246 252 256 257 250 239 229 218 215 214 223 236 216 190 167 167 167 161 163 163 159 162 160 161 158 161 163 159 163 166 170 171 170
341 343 338 336 334 332 328 329 330 326 321 323 326 331 329 325 323 321 319 320 319 316 313 307 301 300 284 260 248 246 243 251 253 252 232 233 232 234 236 240 245 246 245 246 247 239 218 215 194 181 177 162 154 310 330 185 164 167 160 161 161 161 162 159 157 160 161 163 166 165 169 170 173 174
344 343 336 332 332 329 327 325 324 327 327 322 318 322 326 327 324 322 320 318 316 311 309 308 307 306 304 294 263 243 238 236 237 237 241 232 238 238 240 240 245 247 244 242 237 223 207 214 194 179 174 170 173 177 191 336 196 162 163 165 163 160 160 156 156 158 162 165 166 165 169 171 174 172
338 336 334 326 323 327 324 318 325 327 323 324 324 325 325 324 325 320 315 312 309 307 304 305 302 303 300 297 293 265 238 231 232 236 238 241 240 245 248 252 246 245 241 235 226 210 207 215 206 181 172 170 175 175 176 354 166 186 162 160 165 158 159 158 157 162 167 164 169 173 173 170 175 178
335 332 330 327 324 319 318 317 311 318 325 321 315 319 320 320 323 322 318 314 308 308 307 305 301 300 297 298 299 296 273 236 232 235 238 237 239 239 242 248 250 240 232 225 216 207 202 216 207 187 171 173 170 165 152 150 139 154 248 166 155 162 159 157 160 163 164 169 170 172 169 175 172 168
340 330 325 323 319 316 316 319 319 310 309 310 310 310 314 314 315 316 314 312 312 309 307 304 302 300 300 300 301 300 296 279 242 236 236 237 235 241 243 243 244 236 224 218 208 204 201 211 204 193 180 173 178 174 165 160 168 157 160 181 159 152 164 162 163 164 162 162 159 133 104 92 84 102
329 320 316 316 315 316 311 310 316 322 315 310 307 313 321 324 321 313 310 315 316 313 305 301 301 302 299 298 300 301 298 290 276 252 247 244 242 241 241 242 240 231 217 213 203 203 200 208 194 198 187 160 120 84 100 95 88 92 100 143 173 168 160 163 163 159 159 158 142 136 136 133 141 132
331 326 321 313 311 313 310 308 305 311 320 318 311 313 321 325 325 317 320 322 320 314 308 303 302 303 300 300 297 298 297 295 290 269 248 245 245 244 245 244 240 226 215 210 202 200 201 203 191 124 96 110 112 101 99 109 123 121 118 131 153 184 181 168 160 161 159 153 154 154 153 157 152 153
330 324 319 314 312 309 308 308 308 301 302 313 313 312 320 325 318 323 322 320 321 318 315 310 306 301 297 295 295 295 291 290 291 286 263 244 244 243 241 236 233 220 210 206 199 206 199 162 120 109 127 123 135 137 138 138 139 140 140 134 100 92 126 159 164 154 152 156 154 154 148 144 146 155
325 326 322 317 309 307 306 305 308 308 301 300 308 311 315 319 320 323 323 325 324 319 313 311 309 305 298 294 291 287 286 285 284 283 276 253 243 241 240 230 224 217 211 212 202 146 106 129 140 141 140 145 151 146 150 154 144 134 128 129 131 105 61 89 125 125 143 164 167 162 163 160 158 169
325 320 316 317 313 304 305 307 308 311 309 300 299 301 314 321 322 323 325 328 326 319 315 308 303 302 299 294 292 286 279 278 279 283 283 269 243 239 238 230 221 216 213 197 129 141 157 155 164 159 153 159 165 158 153 145 144 141 139 138 131 126 126 109 106 121 142 156 148 132 119 148 35 64
322 319 317 317 317 308 300 307 310 309 306 308 311 311 322 329 321 317 327 332 328 323 316 308 297 295 297 300 298 294 288 284 281 278 277 271 251 237 231 225 214 208 204 168 154 164 165 166 167 167 167 168 169 164 152 152 149 145 141 136 141 143 141 142 142 144 143 134 80 120 136 141 109 109